Home > Weather > Södertälje > Past weeks

Flag for Sweden Past Weather in Södertälje, Sweden — Yesterday and Last 2 Weeks

Now
50 °F

Partly sunny.


Feels Like: 47 °F
Forecast: 51 / 72 °F
Wind: 7 mph from Northeast

Location: Stockholm Bromma Airport

Current Time: May 30, 2016 at 7:04:54 AM

Latest Report: May 30, 2016 at 6:20 AM


Visibility: N/A

Pressure: 30.18 "Hg

Humidity: 94%

Dew Point: 48 °F

Location of SödertäljeLocation

Past Weather in Södertälje — Graph

°F

Södertälje Temperature Yesterday

Maximum temperature yesterday: 63 °F (at 2:20 PM)
Minimum temperature yesterday: 52 °F (at 11:50 PM)
Average temperature yesterday: 58 °F

High & Low Weather Summary for the Past Weeks

 TemperatureHumidityPressure
High75 °F (May 24, 12:20 PM)100% (May 16, 8:20 AM)30.21 "Hg (May 16, 8:20 AM)
Low39 °F (May 17, 3:20 AM)36% (May 24, 3:50 PM)29.53 "Hg (May 16, 1:20 AM)
Average53 °F74%29.89 "Hg
* Reported May 15 6:20 AM — May 30 6:20 AM, Södertälje, Weather by CustomWeather, © 2016

Note: Actual official high and low records may vary slightly from our data, if they occured in-between our weather recording intervals... More about our weather records

Advertising

Södertälje Weather History for the Previous 24 Hours

Scroll right to see more
 ConditionsComfort  
Time TempWeatherWind HumidityBarometerVisibility
6:20 AM
Mon, May 30
50 °FPartly sunny.7 mph94%30.18 "HgN/A
5:20 AM50 °FPartly sunny.6 mph94%30.18 "HgN/A
4:50 AM50 °FPassing clouds.5 mph88%30.18 "HgN/A
4:20 AM48 °FCool.5 mph94%30.18 "HgN/A
3:50 AM48 °FCool.6 mph94%30.18 "HgN/A
3:20 AM50 °FCool.5 mph88%30.18 "HgN/A
2:50 AM50 °FCool.5 mph88%30.18 "HgN/A
2:20 AM50 °FCool.5 mph88%30.18 "HgN/A
1:50 AM50 °FCool.6 mph88%30.18 "HgN/A
1:20 AM50 °FCool.6 mph88%30.18 "HgN/A
12:50 AM50 °FCool.5 mph94%30.18 "HgN/A
12:20 AM52 °FCool.8 mph82%30.18 "HgN/A
11:50 PM
Sun, May 29
52 °FCool.7 mph88%30.18 "HgN/A
11:20 PM54 °FOvercast.7 mph82%30.18 "HgN/A
10:50 PM54 °FPassing clouds.7 mph77%30.18 "HgN/A
10:20 PM54 °FScattered clouds.7 mph77%30.18 "HgN/A
9:50 PM55 °FPassing clouds.7 mph72%30.18 "HgN/A
9:20 PM55 °FSunny.8 mph72%30.18 "Hg10 mi
8:50 PM55 °FSunny.9 mph72%30.18 "Hg10 mi
8:20 PM55 °FPassing clouds.9 mph72%30.18 "HgN/A
7:50 PM55 °FScattered clouds.12 mph72%30.18 "HgN/A
7:20 PM57 °FScattered clouds.13 mph67%30.18 "HgN/A
6:50 PM57 °FScattered clouds.13 mph72%30.18 "HgN/A
6:20 PM59 °FPassing clouds.14 mph68%30.18 "HgN/A
5:50 PM59 °FScattered clouds.13 mph68%30.18 "HgN/A
5:20 PM59 °FPassing clouds.13 mph68%30.18 "HgN/A
4:50 PM61 °FPassing clouds.14 mph63%30.18 "HgN/A
4:20 PM61 °FPassing clouds.14 mph63%30.18 "HgN/A
3:50 PM61 °FScattered clouds.16 mph63%30.18 "HgN/A
3:20 PM61 °FScattered clouds.15 mph63%30.18 "HgN/A
2:50 PM63 °FScattered clouds.15 mph64%30.18 "HgN/A
2:20 PM63 °FScattered clouds.14 mph64%30.18 "HgN/A
1:50 PM61 °FPartly sunny.14 mph68%30.18 "HgN/A
1:20 PM61 °FBroken clouds.13 mph68%30.18 "HgN/A
Weather by CustomWeather, © 2016

See weather overviewHow to use our weather pages